Tracking 20621 objects as of 1-Apr-2020
HD Live streaming from Space Station
objects crossing your sky now

COSMOS 1249 FUEL CORE

Track COSMOS 1249 FUEL CORE now!
10-day predictions


NORAD ID: 12551
Int'l Code: 1981-021C
Perigee: 892.9 km
Apogee: 975.2 km
Inclination: 65.0 °
Period: 103.6 minutes
Semi major axis: 7305 km
RCS: 0.1622 m2 (medium)
Launch date: March 5, 1981
Source: Commonwealth of Independent States (former USSR) (CIS)
Launch site: TYURATAM MISSILE AND SPACE COMPLEX (TTMTR)

Note: This is SATELLITE DEBRIS
aabbcc
Your satellite tracking list
Your tracking list is empty




NASA's NSSDC Master Catalog

Two Line Element Set (TLE):
1 12551U 81021C   20092.10476605 -.00000089  00000-0  11023-5 0  9998
2 12551  64.9675  38.5856 0056318 237.8213 121.7381 13.90490236986369
Source of the keplerian elements: AFSPC